Tracking 28794 objects as of 19-Apr-2024
HD Live streaming from Space Station
objects crossing your sky now

COSMOS 1174 DEB

Track COSMOS 1174 DEB now!
10-day predictions


NORAD ID: 11778
Int'l Code: 1980-030K
Perigee: 626.0 km
Apogee: 1,275.1 km
Inclination: 66.5 °
Period: 103.9 minutes
Semi major axis: 7321 km
RCS: 0.1296 m2 (medium)
Launch date: April 18, 1980
Source: Commonwealth of Independent States (former USSR) (CIS)
Launch site: TYURATAM MISSILE AND SPACE COMPLEX (TTMTR)

Note: This is SATELLITE DEBRIS
Your satellite tracking list
Your tracking list is empty




NASA's NSSDC Master Catalog

Two Line Element Set (TLE):
1 11778U 80030K   24109.45325967  .00005790  00000-0  23559-2 0  9999
2 11778  66.4781 150.8967 0443297  98.8430 266.3092 13.85796890174191
Source of the keplerian elements: AFSPC